N4MRV-1 Weather Reports


time (UTC)temp
C
wind
direction
speed
KPH
gust
KPH
rain 1hr
cm
rain 24hr
cm
rain mn
cm
humidity
%
barometer
mb
20260506214516 21 248 1.6 6.4 0.00 0.20 0.20 77 1009.9
20260506213015 21 248 1.6 6.4 0.00 0.20 0.20 77 1009.8
20260506211515 21 270 1.6 4.8 0.00 0.20 0.20 78 1009.9
20260506210035 21 248 1.6 6.4 0.00 0.20 0.20 80 1009.8
20260506204536 20 0.0 3.2 0.00 0.20 0.20 82 1009.9
20260506203035 20 248 1.6 3.2 0.00 0.20 0.20 84 1009.8
20260506201515 20 0.0 3.2 0.00 0.20 0.20 84 1010.0
20260506200015 20 248 1.6 4.8 0.00 0.20 0.20 84 1010.2
20260506194515 20 0.0 1.6 0.00 0.20 0.20 85 1009.6
20260506193015 19 135 1.6 4.8 0.00 0.20 0.20 84 1009.8
20260506191515 19 225 1.6 6.4 0.00 0.20 0.20 85 1010.0
20260506190016 18 315 1.6 4.8 0.00 0.20 0.20 85 1010.4
20260506184517 18 203 1.6 8.0 0.00 0.20 0.20 85 1010.3
20260506183017 18 315 1.6 6.4 0.00 0.20 0.20 84 1010.9
20260506181517 18 338 1.6 9.7 0.00 0.20 0.20 84 1010.8
20260506180017 19 225 1.6 8.0 0.00 0.20 0.20 85 1011.1
20260506174517 18 248 1.6 4.8 0.00 0.20 0.20 88 1011.0
20260506173037 18 0 1.6 4.8 0.00 0.20 0.20 89 1011.0
20260506171517 17 0 1.6 9.7 0.00 0.20 0.20 88 1011.0
20260506170037 17 0 1.6 8.0 0.00 0.20 0.20 89 1011.1
20260506164517 17 0 1.6 4.8 0.00 0.20 0.20 89 1011.4
20260506163017 17 0.0 3.2 0.00 0.20 0.20 91 1011.8
20260506161537 17 0 1.6 6.4 0.00 0.20 0.20 90 1011.4
20260506160017 17 0 1.6 6.4 0.00 0.20 0.20 90 1011.5
20260506154517 17 0 1.6 6.4 0.03 0.20 0.20 90 1011.2
20260506153017 17 0 1.6 6.4 0.08 0.20 0.20 90 1011.9
20260506151517 16 0.0 3.2 0.13 0.20 0.20 89 1012.1
20260506150017 16 0 1.6 9.7 0.15 0.20 0.20 88 1012.5
20260506144516 17 0 1.6 4.8 0.18 0.18 0.18 86 1012.4
20260506143017 17 0.0 3.2 0.13 0.13 0.13 85 1012.7
20260506141537 17 0 1.6 4.8 0.08 0.08 0.08 84 1012.4
20260506140017 17 0 1.6 4.8 0.05 0.05 0.05 81 1012.0
20260506134516 17 0 1.6 9.7 0.00 0.00 0.00 78 1012.3
20260506133016 17 0 1.6 6.4 0.00 0.00 0.00 79 1012.1
20260506131516 17 0 1.6 4.8 0.00 0.00 0.00 79 1012.1
20260506130016 18 0 1.6 12.9 0.00 0.00 0.00 80 1011.9
20260506124556 18 0 1.6 4.8 0.00 0.00 0.00 77 1012.1
20260506123016 18 0 1.6 6.4 0.00 0.00 0.00 75 1012.0
20260506121516 18 0 1.6 9.7 0.00 0.00 0.00 74 1011.9
20260506120016 17 0 1.6 4.8 0.00 0.00 0.00 75 1011.8
20260506114516 17 0 1.6 6.4 0.00 0.00 0.00 75 1011.9
20260506113016 17 0 1.6 9.7 0.00 0.00 0.00 75 1011.9
20260506111517 17 0 1.6 6.4 0.00 0.00 0.00 75 1011.8
20260506110016 17 0 1.6 6.4 0.00 0.00 0.00 74 1011.9
20260506104517 17 0 1.6 6.4 0.00 0.00 0.00 74 1011.8
20260506103016 17 0 1.6 4.8 0.00 0.00 0.00 74 1012.0
20260506101516 17 0 1.6 8.0 0.00 0.00 0.00 74 1011.9
20260506100016 17 0 1.6 6.4 0.00 0.00 0.00 75 1011.8
20260506094516 17 0 1.6 6.4 0.00 0.00 0.00 75 1011.7
20260506093036 17 0 1.6 8.0 0.00 0.00 0.00 75 1011.6
20260506091516 17 0 1.6 4.8 0.00 0.00 0.00 76 1011.7
20260506090036 17 0 1.6 6.4 0.00 0.00 0.00 75 1011.8
20260506084536 17 0 1.6 8.0 0.00 0.00 0.00 75 1011.9
20260506083016 17 0 1.6 9.7 0.00 0.00 0.00 74 1012.1
20260506081536 17 0 1.6 12.9 0.00 0.00 0.00 74 1012.0
20260506073016 18 0 1.6 9.7 0.00 0.00 0.00 72 1012.2
20260506071516 18 0 1.6 9.7 0.00 0.00 0.00 72 1012.3
20260506061536 18 0 1.6 9.7 0.00 0.00 0.00 70 1012.5
20260506044536 20 248 1.6 12.9 0.00 0.00 0.00 65 1013.2
20260506043015 20 180 1.6 8.0 0.00 0.00 0.00 64 1013.2
20260506041515 20 180 1.6 9.7 0.00 0.00 0.00 62 1013.2
20260506040055 21 203 1.6 14.5 0.00 0.00 0.00 60 1013.2
20260506034536 21 225 1.6 6.4 0.00 0.00 0.00 59 1013.0
20260506033016 21 225 1.6 11.3 0.00 0.00 0.00 58 1013.0
20260506031516 21 248 1.6 4.8 0.00 0.00 0.00 58 1013.0
20260506030016 21 225 1.6 9.7 0.00 0.00 0.00 56 1013.0
20260506024516 21 225 1.6 12.9 0.00 0.00 0.00 56 1012.9
20260506023016 21 180 1.6 8.0 0.00 0.00 0.00 55 1013.0
20260506021516 21 225 1.6 4.8 0.00 0.00 0.00 55 1013.0
20260506020016 22 248 1.6 11.3 0.00 0.00 0.00 54 1012.9
20260506014516 22 180 1.6 9.7 0.00 0.00 0.00 53 1012.7
20260506013016 22 203 1.6 11.3 0.00 0.00 0.00 52 1012.7
20260506011536 22 158 1.6 12.9 0.00 0.00 0.00 52 1012.4
20260506010016 22 180 1.6 9.7 0.00 0.00 0.00 51 1012.4
20260506004516 23 225 1.6 4.8 0.00 0.00 0.00 50 1012.2
20260506003016 23 158 1.6 12.9 0.00 0.00 0.00 48 1012.1
20260506001515 23 158 1.6 4.8 0.00 0.00 0.00 48 1011.9
20260506000015 24 68 1.6 3.2 0.00 0.00 0.00 45 1011.8
20260505234516 24 225 1.6 8.0 0.00 0.00 0.00 44 1011.7
20260505233016 25 225 1.6 9.7 0.00 0.00 0.00 43 1011.7
20260505231515 25 158 1.6 11.3 0.00 0.00 0.00 41 1011.7
20260505230016 26 158 1.6 8.0 0.00 0.00 0.00 40 1011.7
20260505224515 26 180 1.6 6.4 0.00 0.00 0.00 37 1011.7
20260505223016 27 68 1.6 8.0 0.00 0.00 0.00 35 1011.8
20260505221515 27 248 1.6 6.4 0.00 0.00 0.00 35 1011.8
20260505220015 27 270 3.2 12.9 0.00 0.00 0.00 34 1011.6